Regional Weather Roundup
Issued by NWS Kansas City/Pleasant Hill, MO

Home | Current Version | Previous Version | Graphics & Text | Print | Product List | Glossary Off
Versions: 1 2 3 4 5 6 7 8 9 10 11 12 13 14 15 16 17 18 19 20 21 22 23 24 25 26 27 28 29 30 31 32 33 34 35 36 37 38 39 40 41 42 43 44 45 46 47 48 49 50

000
ASUS43 KEAX 191611
RWREAX

WEATHER ROUNDUP FOR EASTERN KANSAS AND NORTHWEST MISSOURI
NATIONAL WEATHER SERVICE KANSAS CITY/PLEASANT HILL MO
1100 AM CDT SUN APR 19 2015

KSZ040-057-103>105-MOZ028-029-037-043-191700-
...KANSAS CITY METROPOLITAN AREA...

CITY           SKY/WX    TMP DP  RH WIND       PRES   REMARKS
K.C. INTL      PTSUNNY   62  56  80 NW6       29.69F
K.C. DOWNTOWN  PTSUNNY   63  53  70 W13       29.69S
LEES SUMMIT    CLOUDY    62  55  77 W10       29.69F
OLATHE - IXD   CLOUDY    60  54  80 NW12      29.71S
OLATHE - OJC   CLOUDY    62  53  72 N12       29.69F
LAWRENCE       CLOUDY    62  52  69 W12       29.71S

$$

MOZ001>008-011>017-020>025-030>033-038>040-044>046-053-054-191700-
...NORTHERN AND CENTRAL MISSOURI...

CITY           SKY/WX    TMP DP  RH WIND       PRES   REMARKS
ST. JOSEPH     PTSUNNY   60  55  83 NW10      29.69F
MOSBY          PTSUNNY   61  54  77 W12       29.68F
WARRENSBURG    CLOUDY    59  55  88 W7        29.69R
WHITEMAN AFB   CLOUDY    63  58  85 W9        29.67R
CLINTON        CLOUDY    61  57  88 W12       29.70R
SEDALIA        CLOUDY    63  59  87 NW6       29.68R
WARSAW         NOT AVBL
CHILLICOTHE      N/A     68  60  75 VRB3      29.66S
MOBERLY        LGT RAIN  66  55  68 S3        29.66F
KIRKSVILLE     MOSUNNY   69  59  70 NE9       29.64F

$$

MOZ041-047>049-056>058-063>065-088>090-097-191700-
...EASTERN AND SOUTHERN MISSOURI...

CITY           SKY/WX    TMP DP  RH WIND       PRES   REMARKS
ST. LOUIS INTL LGT RAIN  65  58  78 SE3       29.63F
SPIRIT OF STL  LGT RAIN  65  60  84 CALM      29.61F
COLUMBIA       LGT RAIN  60  59  96 W5        29.66F FOG
JEFFERSON CITY LGT RAIN  61  59  93 N6        29.65F FOG
HANNIBAL       CLOUDY    68  52  56 S3        29.63F
ROLLA          RAIN      61  59  93 W5        29.65S FOG
LEBANON        PTSUNNY   68  61  77 CALM      29.67S
OSAGE BEACH    CLOUDY    63  59  88 CALM      29.65F
SPRINGFIELD    CLOUDY    64  55  72 W7        29.69R
BRANSON        PTSUNNY   59  54  82 W6        29.72R
NEVADA         CLOUDY    59  54  82 W10       29.75R
JOPLIN         CLOUDY    61  54  77 W18G25    29.78R
WEST PLAINS    CLOUDY    66  59  78 NW10      29.65F

$$

IAZ060-094-KSZ022-034>040-054-083-096-NEZ052-066-093-191700-
...KANSAS...SOUTHEAST NEBRASKA AND IOWA...

CITY           SKY/WX    TMP DP  RH WIND       PRES   REMARKS
TOPEKA         CLOUDY    62  53  72 W10       29.73R
MANHATTAN      CLOUDY    62  54  74 N7        29.75R
EMPORIA        CLOUDY    59  52  77 W6        29.76S
CHANUTE        PTSUNNY   61  55  81 W12       29.78S
WICHITA        CLOUDY    59  51  75 N7        29.77R
OMAHA          LGT RAIN  53  51  93 NW14G24   29.73S
LINCOLN        CLOUDY    53  49  86 N22G31    29.77S
FALLS CITY     CLOUDY    57  53  86 NW16      29.70S
LAMONI         CLOUDY    63  58  83 VRB5      29.66F
DES MOINES     LGT RAIN  62  58  86 E3        29.67F

$$




USA.gov is the U.S. government's official web portal to all federal, state and local government web resources and services.